Location: Luxembourg
(49.6117°N, 6.1300°E)
Time: 18:01:05
(UTC+01:00)

X-37B - Pass Details

Date: 09 December 2021
Orbit: 334 x 337 km, 45.0° (Epoch: 11 January)

Event Time Altitude Azimuth Distance (km) Brightness Sun altitude
Rises 18:53:41 0° 239° (WSW) 2,099 5.5 -21.3°
Reaches altitude 10° 18:55:52 10° 226° (SW) 1,264 3.9 -21.6°
Enters shadow 18:57:14 20° 203° (SSW) 851 2.6 -21.8°
